Minneapolis, MN

3:24 AM CDT on March 28, 2017 (GMT -0500)
Minneapolis-Saint Paul International

Weather History for KMSP - October, 2010

Change the Weather History Date:

Monday, October 18, 2010

  Actual Average Record
Temperature  
Mean Temperature 48 °F 48 °F  
Max Temperature 56 °F 57 °F 87 °F (1950)
Min Temperature 39 °F 39 °F 18 °F (1972)
Degree Days  
Heating Degree Days 17 17  
Month to date heating degree days 135 247  
Since 1 July heating degree days 279 420  
Cooling Degree Days 0 0  
Month to date cooling degree days 18 3  
Year to date cooling degree days 1000 750  
Moisture  
Dew Point 34 °F    
Average Humidity 60    
Maximum Humidity 79    
Minimum Humidity 41    
Precipitation  
Precipitation T in 0.09 in 1.05 in (1979)
Month to date precipitation T 1.59  
Year to date precipitation 26.43 26.84  
Snow  
Snow 0.00 in 0.00 in 1.30 in (1976)
Month to date snowfall 0.0 0.1  
Since 1 July snowfall T 0.1  
Since 1 September snowfall T 0.1  
Snow Depth 0.00 in    
Sea Level Pressure  
Sea Level Pressure 30.12 in    
Wind  
Wind Speed 5 mph (WNW)    
Max Wind Speed 14 mph    
Max Gust Speed 17 mph    
Visibility 10 miles    
Events Rain    
T = Trace of Precipitation, MM = Missing Value Source: NWS Daily Summary

Daily Weather History Graph

Daily Weather History Graph

Search for Another Location

Airport or City:

Trip Planner

Search our weather history database for the weather conditions in past years. The results will help you decide how hot, cold, wet, or windy it might be!

Date:

Astronomy

Oct. 18, 2010 Rise Set
Actual Time 7:32 AM CDT 6:22 PM CDT
Civil Twilight 7:02 AM CDT 6:52 PM CDT
Nautical Twilight 6:28 AM CDT 7:26 PM CDT
Astronomical Twilight 5:54 AM CDT 8:00 PM CDT
Moon 4:16 PM CDT (10/18) 3:11 AM CDT (10/18)
Length of Visible Light 11h 49m
Length of Day
10h 50m
Waxing Gibbous, 83% of the Moon is Illuminated
Oct 18
Waxing Gibbous
Oct 22
Full
Oct 30
Last Quarter
Nov 5
New
Nov 13
First Quarter

Hourly Weather History & Observations

Time (CDT) Temp. Windchill Dew Point Humidity Pressure Visibility Wind Dir Wind Speed Gust Speed Precip Events Conditions
12:53 AM 46.9 °F - 35.1 °F 63% 30.16 in 10.0 mi West 3.5 mph - N/A   Overcast
1:53 AM 48.0 °F - 33.1 °F 56% 30.16 in 10.0 mi West 3.5 mph - N/A   Overcast
2:53 AM 46.0 °F 41.0 °F 34.0 °F 63% 30.16 in 10.0 mi North 10.4 mph - 0.00 in Rain Light Rain
3:53 AM 45.0 °F 40.6 °F 35.1 °F 68% 30.15 in 10.0 mi NNE 8.1 mph - 0.00 in   Overcast
4:53 AM 43.0 °F 38.8 °F 35.1 °F 74% 30.16 in 10.0 mi NNE 6.9 mph - N/A   Mostly Cloudy
5:53 AM 42.1 °F - 35.1 °F 76% 30.17 in 10.0 mi Calm Calm - N/A   Mostly Cloudy
6:53 AM 41.0 °F 39.0 °F 35.6 °F 81% 30.16 in 10.0 mi WNW 3.5 mph - N/A   Scattered Clouds
7:53 AM 42.1 °F - 35.1 °F 76% 30.17 in 10.0 mi Calm Calm - N/A   Mostly Cloudy
8:53 AM 44.1 °F 41.5 °F 37.0 °F 76% 30.19 in 10.0 mi WNW 4.6 mph - N/A   Mostly Cloudy
9:53 AM 46.9 °F - 36.0 °F 66% 30.18 in 10.0 mi NW 6.9 mph - N/A   Scattered Clouds
10:53 AM 50.0 °F - 35.6 °F 58% 30.16 in 10.0 mi NNW 6.9 mph - N/A   Scattered Clouds
11:53 AM 51.1 °F - 33.1 °F 50% 30.16 in 10.0 mi NE 3.5 mph - N/A   Scattered Clouds
12:53 PM 53.1 °F - 30.9 °F 43% 30.13 in 10.0 mi Calm Calm - N/A   Scattered Clouds
1:53 PM 53.1 °F - 30.0 °F 41% 30.11 in 10.0 mi West 10.4 mph - N/A   Scattered Clouds
2:53 PM 55.0 °F - 32.0 °F 42% 30.09 in 10.0 mi West 4.6 mph - N/A   Partly Cloudy
3:53 PM 54.0 °F - 30.9 °F 41% 30.06 in 10.0 mi West 8.1 mph - N/A   Scattered Clouds
4:53 PM 54.0 °F - 32.0 °F 43% 30.05 in 10.0 mi West 11.5 mph - N/A   Scattered Clouds
5:53 PM 53.1 °F - 32.0 °F 45% 30.05 in 10.0 mi West 8.1 mph - N/A   Partly Cloudy
6:53 PM 51.1 °F - 33.1 °F 50% 30.05 in 10.0 mi West 8.1 mph - N/A   Partly Cloudy
7:53 PM 50.0 °F - 34.0 °F 54% 30.06 in 10.0 mi West 4.6 mph - N/A   Mostly Cloudy
8:53 PM 48.9 °F - 35.1 °F 59% 30.06 in 10.0 mi WNW 5.8 mph - N/A   Mostly Cloudy
9:53 PM 46.9 °F - 35.1 °F 63% 30.06 in 10.0 mi West 3.5 mph - N/A   Scattered Clouds
10:53 PM 46.9 °F - 36.0 °F 66% 30.05 in 10.0 mi Calm Calm - N/A   Scattered Clouds
11:53 PM 44.1 °F - 36.0 °F 73% 30.04 in 10.0 mi Calm Calm - N/A   Partly Cloudy